Regional Weather Roundup
Issued by NWS

Home | Current Version | Previous Version | Graphics & Text | Print | Product List | Glossary On
Versions: 1 2 3 4 5 6 7 8 9 10 11 12 13 14 15 16 17 18 19 20 21 22 23 24 25 26 27 28 29 30 31 32 33 34 35 36 37 38 39 40 41 42 43 44 45 46 47 48 49 50
000
ASUS44 KMEG 191000
RWRTN
TENNESSEE HOURLY STATE WEATHER ROUNDUP
NATIONAL WEATHER SERVICE MEMPHIS TN
400 AM CST SUN FEB 19 2017

TNZ002-004-019-021-049-052-054-088>092-191100-
WEST TENNESSEE

CITY           SKY/WX    TMP DP  RH WIND       PRES   REMARKS
MEMPHIS INTL   CLEAR     49  49 100 CALM      29.99R
NWS MEMPHIS      N/A     46 N/A N/A MISG        N/A
JACKSON        CLEAR     43  43 100 E3        30.00S FOG
UNION CITY     CLOUDY   N/A N/A N/A CALM      29.98F VSB 1/4
PARIS          MOCLDY    45  45 100 CALM      30.00S VSB 1/4
$$

TNZ008-025-027-028-033-062-065-066-191100-
NORTH MIDDLE TENNESSEE

CITY           SKY/WX    TMP DP  RH WIND       PRES   REMARKS
NASHVILLE      PTCLDY    49  46  90 CALM      30.02R
CLARKSVILLE    FOG       43  41  93 CALM      30.01R VSB 1/4
SMYRNA         PTCLDY    46  46 100 CALM      30.03R FOG
CROSSVILLE     CLOUDY    46  45  96 W5        30.01R
$$

TNZ061-075-076-078-094-096-097-191100-
SOUTH MIDDLE TENNESSEE

CITY           SKY/WX    TMP DP  RH WIND       PRES   REMARKS
TULLAHOMA      CLOUDY    48  48 100 CALM      30.02R VSB 1
WINCHESTER     CLOUDY    48  48 100 CALM      30.02R
MCMINNVILLE    MOCLDY    48  48 100 CALM      30.02R VSB 1
COLUMBIA       CLOUDY   N/A N/A N/A CALM      30.00R VSB 1/4
SHELBYVILLE    CLOUDY    48  48 100 CALM      30.03R VSB 1/4
$$

TNZ017-018-042-046-047-191100-
NORTHEAST TENNESSEE

CITY           SKY/WX    TMP DP  RH WIND       PRES   REMARKS
TRI CITIES     CLOUDY    48  46  93 CALM      30.01R FOG
$$

TNZ012-013-036-069-073-074-191100-
CENTRAL EAST TENNESSEE

CITY           SKY/WX    TMP DP  RH WIND       PRES   REMARKS
KNOXVILLE      CLOUDY    50  48  93 CALM      30.00R FOG
OAK RIDGE      FOG       50  48  93 CALM      30.02R VSB 1/2
GATLINBURG     CLOUDY    46  46 100 E3        30.00S
$$

TNZ083-085-099-191100-
SOUTHEAST TENNESSEE

CITY           SKY/WX    TMP DP  RH WIND       PRES   REMARKS
CHATTANOOGA    CLOUDY    51  49  92 CALM      30.02R FOG
$$

SKY/WX REPORTED AS FAIR MEANS FEW OR NO CLOUDS BELOW
12 THOUSAND FEET.




USA.gov is the U.S. government's official web portal to all federal, state and local government web resources and services.